Starlink 32138

operational
NORAD ID: 60255 Int'l Des: 2024-131 Owner: SPXS Country: US Constellation: starlink
LEOCIRCULAR

About Starlink 32138

Description loading...

Live Position

Loading 3D Globe...

Upcoming Passes

Altitude History

Altitude vs Time

uPlot chart will show altitude changes over time

Two-Line Element Set

1 60255U 24131A 25352.22159986 .00000997 00000-0 45810-4 0 9995
2 60255 53.1607 70.9768 0001293 83.4120 276.7028 15.30191289 79548
Epoch: Dec 18, 2025 • Age: 9 hours

Current Status

Altitude 488.1 km
Velocity 7.62 km/s
Sub-Earth Point -37.56°S, 15.53°W
Launch Date Jul 27, 2024
Age 1.3 years
Type internet

Technical Details

Classification Payload
Mass 730.00 kg
Dry Mass 700.00 kg
Total Mass 730.00 kg
Length 0.30 m
Diameter 4.10 m
Span 29.00 m
Shape Box + pan
Manufacturer SPXS
Bus Type Starlink V2M
Phase Status In Orbit
Owner/State SPXS/US

Large Constellations

Loading constellations...